| time (UTC) | temp F | wind direction | speed MPH | gust MPH | rain 1hr in | rain 24hr in | rain mn in | humidity % | barometer mb |
| 20260502163337 | 64 | 343 | 6.0 | 12.0 | 0.00 | 0.84 | 0.09 | 97 | 1021.8 |
| 20260502162824 | 64 | 35 | 5.0 | 10.0 | 0.00 | 0.84 | 0.09 | 97 | 1021.7 |
| 20260502162324 | 63 | 13 | 3.0 | 14.0 | 0.00 | 0.84 | 0.09 | 97 | 1021.7 |
| 20260502161851 | 63 | 12 | 10.0 | 14.0 | 0.00 | 0.84 | 0.09 | 97 | 1021.8 |
| 20260502161335 | 63 | 324 | 7.0 | 12.0 | 0.00 | 0.84 | 0.09 | 97 | 1021.8 |
| 20260502160820 | 62 | 11 | 6.0 | 13.0 | 0.00 | 0.84 | 0.09 | 97 | 1021.8 |
| 20260502160352 | 62 | 9 | 6.0 | 13.0 | 0.00 | 0.84 | 0.09 | 96 | 1021.8 |
| 20260502152326 | 61 | 12 | 5.0 | 10.0 | 0.00 | 0.96 | 0.09 | 97 | 1021.8 |
| 20260502151832 | 60 | 360 | 4.0 | 10.0 | 0.00 | 0.96 | 0.09 | 97 | 1021.8 |
| 20260502151406 | 60 | 360 | 6.0 | 11.0 | 0.00 | 0.96 | 0.09 | 97 | 1021.8 |
| 20260502150827 | 60 | 320 | 5.0 | 12.0 | 0.00 | 0.96 | 0.09 | 97 | 1021.8 |
| 20260502150330 | 60 | 344 | 8.0 | 13.0 | 0.00 | 0.96 | 0.09 | 97 | 1021.8 |
| 20260502130332 | 52 | 323 | 1.0 | 5.0 | 0.00 | 1.20 | 0.09 | 96 | 1020.5 |
| 20260502045820 | 52 | 54 | 6.0 | 11.0 | 0.03 | 1.56 | 0.00 | 95 | 1017.2 |
| 20260502045323 | 52 | 46 | 6.0 | 11.0 | 0.02 | 1.57 | 1.55 | 95 | 1017.3 |
| 20260502044834 | 52 | 39 | 4.0 | 9.0 | 0.02 | 1.57 | 1.55 | 95 | 1017.3 |
| 20260502044340 | 52 | 38 | 5.0 | 8.0 | 0.03 | 1.57 | 1.55 | 95 | 1017.3 |
| 20260502043827 | 52 | 5 | 4.0 | 8.0 | 0.03 | 1.57 | 1.55 | 95 | 1017.2 |
| 20260502043333 | 52 | 19 | 4.0 | 8.0 | 0.03 | 1.57 | 1.55 | 95 | 1017.3 |
| 20260502042822 | 52 | 13 | 4.0 | 8.0 | 0.02 | 1.56 | 1.54 | 95 | 1017.3 |
| 20260502042329 | 52 | 5 | 3.0 | 8.0 | 0.02 | 1.56 | 1.54 | 95 | 1017.4 |
| 20260502041832 | 52 | 355 | 4.0 | 9.0 | 0.03 | 1.56 | 1.54 | 95 | 1017.3 |
| 20260502041318 | 52 | 63 | 5.0 | 9.0 | 0.03 | 1.56 | 1.54 | 95 | 1017.3 |
| 20260502040820 | 52 | 35 | 5.0 | 10.0 | 0.03 | 1.56 | 1.54 | 95 | 1017.3 |
| 20260502040332 | 52 | 29 | 5.0 | 11.0 | 0.02 | 1.55 | 1.53 | 95 | 1017.3 |
| 20260502035841 | 52 | 45 | 6.0 | 11.0 | 0.03 | 1.55 | 1.53 | 95 | 1017.4 |
| 20260502035325 | 52 | 55 | 5.0 | 11.0 | 0.03 | 1.55 | 1.53 | 95 | 1017.4 |
| 20260502034849 | 52 | 360 | 5.0 | 12.0 | 0.03 | 1.55 | 1.53 | 95 | 1017.3 |
| 20260502034343 | 52 | 48 | 5.0 | 12.0 | 0.02 | 1.54 | 1.52 | 95 | 1017.3 |
| 20260502033818 | 52 | 67 | 6.0 | 13.0 | 0.03 | 1.54 | 1.52 | 95 | 1017.3 |
| 20260502033330 | 51 | 45 | 6.0 | 13.0 | 0.03 | 1.54 | 1.52 | 95 | 1017.4 |
| 20260502032833 | 51 | 46 | 9.0 | 13.0 | 0.03 | 1.54 | 1.52 | 95 | 1017.4 |
| 20260502032334 | 51 | 61 | 7.0 | 16.0 | 0.03 | 1.54 | 1.52 | 95 | 1017.4 |
| 20260502031820 | 51 | 53 | 4.0 | 16.0 | 0.03 | 1.53 | 1.51 | 95 | 1017.3 |
| 20260502031326 | 51 | 61 | 6.0 | 13.0 | 0.03 | 1.53 | 1.51 | 95 | 1017.2 |
| 20260502030900 | 51 | 60 | 5.0 | 14.0 | 0.03 | 1.53 | 1.51 | 95 | 1017.1 |
| 20260502030340 | 51 | 43 | 8.0 | 16.0 | 0.03 | 1.53 | 1.51 | 95 | 1017.2 |
| 20260502025825 | 51 | 44 | 7.0 | 17.0 | 0.03 | 1.52 | 1.50 | 95 | 1017.1 |
| 20260502025325 | 51 | 48 | 9.0 | 17.0 | 0.03 | 1.52 | 1.50 | 95 | 1016.9 |
| 20260502024829 | 51 | 45 | 7.0 | 13.0 | 0.03 | 1.52 | 1.50 | 95 | 1016.9 |
| 20260502024343 | 51 | 33 | 6.0 | 13.0 | 0.04 | 1.52 | 1.50 | 95 | 1016.7 |
| 20260502023844 | 51 | 65 | 5.0 | 13.0 | 0.03 | 1.51 | 1.49 | 95 | 1016.6 |
| 20260502023328 | 51 | 42 | 8.0 | 14.0 | 0.03 | 1.51 | 1.49 | 95 | 1016.5 |
| 20260502022854 | 51 | 64 | 8.0 | 20.0 | 0.03 | 1.51 | 1.49 | 95 | 1016.5 |
| 20260502022336 | 52 | 61 | 9.0 | 20.0 | 0.04 | 1.51 | 1.49 | 95 | 1016.3 |
| 20260502021822 | 52 | 31 | 9.0 | 17.0 | 0.03 | 1.50 | 1.48 | 95 | 1016.2 |
| 20260502021325 | 52 | 15 | 7.0 | 14.0 | 0.03 | 1.50 | 1.48 | 95 | 1016.0 |
| 20260502020835 | 52 | 5 | 8.0 | 20.0 | 0.04 | 1.50 | 1.48 | 95 | 1016.0 |
| 20260502020342 | 52 | 19 | 10.0 | 21.0 | 0.04 | 1.50 | 1.48 | 95 | 1015.8 |
| 20260502015829 | 53 | 41 | 11.0 | 21.0 | 0.03 | 1.49 | 1.47 | 95 | 1015.6 |
| 20260502015329 | 53 | 5 | 8.0 | 17.0 | 0.04 | 1.49 | 1.47 | 95 | 1015.8 |
| 20260502014850 | 53 | 11 | 9.0 | 16.0 | 0.04 | 1.49 | 1.47 | 95 | 1015.6 |
| 20260502014333 | 53 | 360 | 8.0 | 16.0 | 0.03 | 1.48 | 1.46 | 95 | 1015.6 |
| 20260502013844 | 53 | 61 | 9.0 | 15.0 | 0.04 | 1.48 | 1.46 | 95 | 1015.3 |
| 20260502013329 | 53 | 24 | 8.0 | 17.0 | 0.04 | 1.48 | 1.46 | 95 | 1015.2 |
| 20260502012832 | 53 | 50 | 10.0 | 17.0 | 0.03 | 1.47 | 1.45 | 95 | 1014.8 |
| 20260502012319 | 53 | 47 | 9.0 | 16.0 | 0.04 | 1.47 | 1.45 | 95 | 1014.8 |
| 20260502011825 | 53 | 15 | 7.0 | 13.0 | 0.04 | 1.47 | 1.45 | 95 | 1014.9 |
| 20260502011328 | 53 | 28 | 8.0 | 13.0 | 0.04 | 1.47 | 1.45 | 95 | 1015.3 |
| 20260502010834 | 53 | 32 | 7.0 | 15.0 | 0.04 | 1.46 | 1.44 | 95 | 1015.4 |
| 20260502010320 | 53 | 26 | 8.0 | 15.0 | 0.04 | 1.46 | 1.44 | 95 | 1015.3 |
| 20260502005829 | 53 | 63 | 9.0 | 17.0 | 0.04 | 1.46 | 1.44 | 95 | 1015.2 |
| 20260502005330 | 53 | 34 | 11.0 | 17.0 | 0.04 | 1.45 | 1.43 | 95 | 1015.0 |
| 20260502004843 | 54 | 30 | 10.0 | 17.0 | 0.04 | 1.45 | 1.43 | 95 | 1015.1 |
| 20260502004319 | 54 | 32 | 10.0 | 17.0 | 0.05 | 1.45 | 1.43 | 95 | 1015.2 |
| 20260502003831 | 54 | 25 | 9.0 | 17.0 | 0.04 | 1.44 | 1.42 | 95 | 1015.0 |
| 20260502003337 | 54 | 15 | 8.0 | 16.0 | 0.04 | 1.44 | 1.42 | 95 | 1014.7 |
| 20260502002900 | 54 | 28 | 7.0 | 16.0 | 0.05 | 1.44 | 1.42 | 95 | 1014.6 |
| 20260502002345 | 54 | 47 | 6.0 | 16.0 | 0.04 | 1.43 | 1.41 | 95 | 1014.5 |
| 20260502001835 | 54 | 46 | 8.0 | 14.0 | 0.04 | 1.43 | 1.41 | 95 | 1014.4 |
| 20260502001344 | 54 | 53 | 8.0 | 16.0 | 0.05 | 1.43 | 1.41 | 95 | 1014.7 |
| 20260502000826 | 54 | 17 | 10.0 | 16.0 | 0.04 | 1.42 | 1.40 | 95 | 1014.8 |
| 20260502000332 | 54 | 16 | 8.0 | 14.0 | 0.05 | 1.42 | 1.40 | 95 | 1015.1 |
| 20260501235833 | 54 | 17 | 5.0 | 11.0 | 0.05 | 1.42 | 1.40 | 95 | 1014.9 |
| 20260501235318 | 54 | 345 | 6.0 | 13.0 | 0.04 | 1.41 | 1.39 | 95 | 1014.8 |
| 20260501234850 | 54 | 14 | 8.0 | 14.0 | 0.05 | 1.41 | 1.39 | 95 | 1014.7 |
| 20260501234333 | 54 | 13 | 9.0 | 15.0 | 0.04 | 1.40 | 1.38 | 95 | 1014.7 |
| 20260501233839 | 54 | 39 | 9.0 | 14.0 | 0.05 | 1.40 | 1.38 | 95 | 1014.6 |
| 20260501233324 | 54 | 38 | 7.0 | 14.0 | 0.05 | 1.40 | 1.38 | 95 | 1014.7 |
| 20260501232852 | 55 | 351 | 8.0 | 18.0 | 0.04 | 1.39 | 1.37 | 95 | 1014.7 |
| 20260501232332 | 55 | 349 | 8.0 | 18.0 | 0.05 | 1.39 | 1.37 | 95 | 1014.4 |
| 20260501231837 | 55 | 12 | 8.0 | 14.0 | 0.04 | 1.38 | 1.36 | 95 | 1014.3 |
| 20260501231323 | 55 | 5 | 7.0 | 11.0 | 0.04 | 1.38 | 1.36 | 95 | 1014.4 |
| 20260501230825 | 55 | 351 | 5.0 | 13.0 | 0.05 | 1.38 | 1.36 | 95 | 1014.6 |
| 20260501230359 | 55 | 19 | 8.0 | 14.0 | 0.04 | 1.37 | 1.35 | 95 | 1014.2 |
| 20260501225842 | 55 | 16 | 5.0 | 14.0 | 0.05 | 1.37 | 1.35 | 95 | 1014.0 |
| 20260501225350 | 55 | 14 | 8.0 | 15.0 | 0.05 | 1.37 | 1.35 | 95 | 1013.8 |
| 20260501224832 | 55 | 47 | 8.0 | 17.0 | 0.05 | 1.36 | 1.34 | 95 | 1013.2 |
| 20260501224337 | 55 | 19 | 10.0 | 17.0 | 0.05 | 1.36 | 1.34 | 95 | 1012.8 |
| 20260501223822 | 55 | 32 | 7.0 | 17.0 | 0.05 | 1.35 | 1.33 | 95 | 1012.9 |
| 20260501223326 | 56 | 15 | 12.0 | 17.0 | 0.05 | 1.35 | 1.33 | 95 | 1012.9 |
| 20260501222831 | 56 | 342 | 10.0 | 16.0 | 0.06 | 1.35 | 1.33 | 95 | 1012.8 |
| 20260501222341 | 56 | 38 | 10.0 | 14.0 | 0.05 | 1.34 | 1.32 | 95 | 1012.8 |
| 20260501221819 | 56 | 30 | 6.0 | 12.0 | 0.06 | 1.34 | 1.32 | 95 | 1012.9 |
| 20260501221327 | 56 | 5 | 7.0 | 15.0 | 0.05 | 1.33 | 1.31 | 95 | 1012.9 |
| 20260501220853 | 56 | 53 | 7.0 | 15.0 | 0.06 | 1.33 | 1.31 | 95 | 1012.5 |
| 20260501220320 | 57 | 11 | 9.0 | 16.0 | 0.06 | 1.33 | 1.31 | 95 | 1012.2 |
| 20260501215823 | 57 | 5 | 9.0 | 16.0 | 0.06 | 1.32 | 1.30 | 95 | 1011.8 |
| 20260501215327 | 57 | 57 | 8.0 | 18.0 | 0.06 | 1.32 | 1.30 | 95 | 1011.6 |
| 20260501214842 | 57 | 336 | 9.0 | 18.0 | 0.06 | 1.31 | 1.29 | 95 | 1011.3 |
| 20260501214346 | 57 | 74 | 12.0 | 22.0 | 0.06 | 1.31 | 1.29 | 95 | 1011.0 |
| 20260501213830 | 57 | 42 | 14.0 | 22.0 | 0.06 | 1.30 | 1.28 | 95 | 1010.8 |
| 20260501213335 | 57 | 46 | 13.0 | 20.0 | 0.06 | 1.30 | 1.28 | 95 | 1010.8 |
| 20260501212822 | 57 | 18 | 9.0 | 18.0 | 0.06 | 1.29 | 1.27 | 95 | 1010.9 |
| 20260501212327 | 57 | 15 | 10.0 | 18.0 | 0.06 | 1.29 | 1.27 | 95 | 1011.3 |
| 20260501211833 | 57 | 13 | 10.0 | 17.0 | 0.06 | 1.28 | 1.26 | 95 | 1011.7 |
| 20260501211319 | 58 | 26 | 9.0 | 17.0 | 0.07 | 1.28 | 1.26 | 95 | 1011.4 |
| 20260501210827 | 58 | 67 | 10.0 | 17.0 | 0.06 | 1.27 | 1.25 | 95 | 1011.5 |
| 20260501210335 | 58 | 36 | 9.0 | 17.0 | 0.07 | 1.27 | 1.25 | 95 | 1011.9 |
| 20260501205823 | 58 | 22 | 9.0 | 17.0 | 0.06 | 1.26 | 1.24 | 95 | 1012.2 |
| 20260501205328 | 58 | 14 | 7.0 | 14.0 | 0.07 | 1.27 | 1.24 | 95 | 1012.8 |
| 20260501204826 | 58 | 340 | 7.0 | 13.0 | 0.07 | 1.26 | 1.23 | 95 | 1013.0 |
| 20260501204332 | 58 | 16 | 8.0 | 13.0 | 0.07 | 1.26 | 1.23 | 95 | 1013.4 |
| 20260501203847 | 58 | 332 | 4.0 | 17.0 | 0.07 | 1.25 | 1.22 | 95 | 1013.2 |
| 20260501203351 | 58 | 11 | 7.0 | 21.0 | 0.08 | 1.25 | 1.22 | 95 | 1012.1 |
| 20260501202838 | 58 | 13 | 8.0 | 21.0 | 0.07 | 1.24 | 1.21 | 95 | 1011.0 |
| 20260501202323 | 58 | 64 | 9.0 | 23.0 | 0.08 | 1.24 | 1.21 | 95 | 1010.9 |
| 20260501201829 | 58 | 42 | 11.0 | 23.0 | 0.08 | 1.23 | 1.20 | 95 | 1011.0 |
| 20260501201337 | 58 | 28 | 13.0 | 20.0 | 0.07 | 1.22 | 1.19 | 95 | 1011.1 |
| 20260501200824 | 58 | 32 | 9.0 | 21.0 | 0.08 | 1.22 | 1.19 | 95 | 1011.4 |
| 20260501200328 | 58 | 348 | 9.0 | 21.0 | 0.08 | 1.21 | 1.18 | 95 | 1011.5 |
| 20260501195837 | 58 | 33 | 11.0 | 20.0 | 0.08 | 1.21 | 1.18 | 95 | 1011.6 |
| 20260501195324 | 58 | 36 | 10.0 | 19.0 | 0.08 | 1.20 | 1.17 | 95 | 1011.8 |
| 20260501194828 | 58 | 5 | 12.0 | 18.0 | 0.07 | 1.19 | 1.16 | 95 | 1012.4 |
| 20260501194340 | 58 | 355 | 10.0 | 17.0 | 0.08 | 1.19 | 1.16 | 95 | 1012.4 |
| 20260501193825 | 58 | 28 | 7.0 | 17.0 | 0.08 | 1.18 | 1.15 | 95 | 1012.7 |
| 20260501193328 | 58 | 11 | 11.0 | 17.0 | 0.07 | 1.17 | 1.14 | 95 | 1012.8 |
| 20260501192832 | 58 | 338 | 11.0 | 15.0 | 0.08 | 1.17 | 1.14 | 95 | 1012.9 |
| 20260501192318 | 58 | 336 | 7.0 | 15.0 | 0.08 | 1.16 | 1.13 | 95 | 1012.9 |
| 20260501191825 | 58 | 325 | 9.0 | 15.0 | 0.08 | 1.15 | 1.12 | 95 | 1013.1 |
| 20260501191358 | 58 | 360 | 8.0 | 13.0 | 0.08 | 1.15 | 1.12 | 95 | 1013.2 |
| 20260501190844 | 58 | 326 | 5.0 | 6.0 | 0.08 | 1.14 | 1.11 | 95 | 1013.2 |
| 20260501190328 | 58 | 360 | 3.0 | 6.0 | 0.08 | 1.13 | 1.10 | 95 | 1013.1 |
| 20260501185857 | 58 | 355 | 4.0 | 11.0 | 0.09 | 1.13 | 1.10 | 95 | 1012.8 |
| 20260501185323 | 58 | 345 | 4.0 | 11.0 | 0.08 | 1.20 | 1.09 | 95 | 1012.5 |
| 20260501184828 | 57 | 19 | 7.0 | 14.0 | 0.09 | 1.20 | 1.09 | 95 | 1011.8 |
| 20260501184401 | 58 | 53 | 7.0 | 14.0 | 0.09 | 1.19 | 1.08 | 95 | 1011.5 |
| 20260501183848 | 58 | 34 | 5.0 | 14.0 | 0.09 | 1.18 | 1.07 | 95 | 1011.3 |
| 20260501183334 | 58 | 347 | 9.0 | 14.0 | 0.09 | 1.18 | 1.07 | 95 | 1011.2 |
| 20260501182824 | 58 | 48 | 5.0 | 14.0 | 0.09 | 1.17 | 1.06 | 95 | 1010.9 |
| 20260501182325 | 58 | 41 | 7.0 | 18.0 | 0.09 | 1.16 | 1.05 | 95 | 1010.7 |
| 20260501181827 | 58 | 84 | 11.0 | 18.0 | 0.09 | 1.15 | 1.04 | 95 | 1010.3 |
| 20260501181343 | 58 | 66 | 8.0 | 18.0 | 0.10 | 1.15 | 1.04 | 95 | 1010.5 |
| 20260501180846 | 58 | 57 | 12.0 | 19.0 | 0.09 | 1.14 | 1.03 | 95 | 1010.5 |
| 20260501180349 | 58 | 78 | 8.0 | 20.0 | 0.09 | 1.13 | 1.02 | 95 | 1010.7 |
| 20260501175834 | 58 | 63 | 10.0 | 24.0 | 0.09 | 1.12 | 1.01 | 94 | 1010.9 |
| 20260501175336 | 58 | 5 | 14.0 | 24.0 | 0.10 | 1.33 | 1.01 | 95 | 1010.6 |
| 20260501174821 | 58 | 25 | 11.0 | 25.0 | 0.10 | 1.32 | 1.00 | 95 | 1010.2 |
| 20260501174333 | 57 | 87 | 11.0 | 25.0 | 0.09 | 1.31 | 0.99 | 95 | 1010.4 |
| 20260501173858 | 57 | 42 | 11.0 | 21.0 | 0.09 | 1.30 | 0.98 | 95 | 1010.6 |
| 20260501173321 | 57 | 51 | 10.0 | 17.0 | 0.09 | 1.29 | 0.97 | 95 | 1010.9 |
| 20260501172829 | 57 | 40 | 8.0 | 21.0 | 0.10 | 1.29 | 0.97 | 95 | 1011.6 |
| 20260501172335 | 57 | 67 | 9.0 | 21.0 | 0.10 | 1.28 | 0.96 | 95 | 1012.0 |
| 20260501171822 | 57 | 67 | 12.0 | 19.0 | 0.10 | 1.27 | 0.95 | 95 | 1011.3 |
| 20260501171327 | 57 | 74 | 8.0 | 17.0 | 0.10 | 1.26 | 0.94 | 95 | 1012.2 |
| 20260501170836 | 57 | 42 | 10.0 | 17.0 | 0.11 | 1.26 | 0.94 | 95 | 1012.2 |
| 20260501170319 | 57 | 40 | 10.0 | 17.0 | 0.10 | 1.25 | 0.93 | 94 | 1012.9 |
| 20260501165842 | 57 | 82 | 8.0 | 15.0 | 0.10 | 1.24 | 0.92 | 94 | 1013.4 |
| 20260501165354 | 57 | 49 | 7.0 | 15.0 | 0.10 | 1.35 | 0.91 | 94 | 1013.8 |
| 20260501164822 | 57 | 88 | 4.0 | 18.0 | 0.10 | 1.34 | 0.90 | 95 | 1014.0 |
| 20260501164346 | 57 | 55 | 8.0 | 16.0 | 0.10 | 1.33 | 0.89 | 95 | 1013.7 |
| 20260501163838 | 57 | 38 | 6.0 | 18.0 | 0.11 | 1.33 | 0.89 | 95 | 1013.5 |